When you browse on this site, cookies collect data to enhance your experience and personalize the content and advertising you see.
Visit our Privacy Policy to learn more. By continuing to use the site, you agree to this use of cookies and data.
  • In France
  • List of Countries
  • For 7 days
  • Water Temperature
  • Weather Map
  • Weather Widgets
  • user-avatar
    Login

    Hourly Weather Dinagepoor

    Today, 23 August, Friday

    Time Temperature Precipitation Wind Pressure Humidity
    00:00 +32°C° 0 mm 2 mps 749 mmHg 74%
    01:00 +31°C° 2.5 mm 3 mps 748 mmHg 79%
    02:00 +32°C° 2.5 mm 4 mps 748 mmHg 83%
    03:00 +30°C° 2.5 mm 5 mps 748 mmHg 88%
    04:00 +30°C° 0.6 mm 4 mps 748 mmHg 87%
    05:00 +29°C° 0.6 mm 3 mps 748 mmHg 86%
    06:00 +29°C° 0.6 mm 2 mps 748 mmHg 86%
    07:00 +29°C° 0.3 mm 3 mps 749 mmHg 87%
    08:00 +29°C° 0.3 mm 3 mps 749 mmHg 88%
    09:00 +29°C° 0.3 mm 4 mps 750 mmHg 89%
    10:00 +29°C° 0.1 mm 4 mps 750 mmHg 84%
    11:00 +30°C° 0.1 mm 3 mps 750 mmHg 80%
    12:00 +31°C° 0.1 mm 3 mps 750 mmHg 75%
    13:00 +33°C° 0 mm 3 mps 749 mmHg 73%
    14:00 +33°C° 0 mm 3 mps 748 mmHg 71%
    15:00 +34°C° 0 mm 3 mps 747 mmHg 69%
    16:00 +34°C° 0.1 mm 3 mps 747 mmHg 70%
    17:00 +34°C° 0.1 mm 3 mps 747 mmHg 72%
    18:00 +33°C° 0.1 mm 3 mps 747 mmHg 74%
    19:00 +33°C° 0 mm 3 mps 748 mmHg 76%
    20:00 +31°C° 0 mm 2 mps 749 mmHg 78%
    21:00 +31°C° 0 mm 2 mps 750 mmHg 81%
    22:00 +30°C° 1.3 mm 3 mps 750 mmHg 82%
    23:00 +30°C° 1.3 mm 4 mps 749 mmHg 84%

    Tomorrow, 24 August, Saturday

    Time Temperature Precipitation Wind Pressure Humidity
    00:00 +30°C° 1.3 mm 4 mps 749 mmHg 86%
    01:00 +30°C° 2 mm 4 mps 749 mmHg 85%
    02:00 +29°C° 2 mm 5 mps 749 mmHg 84%
    03:00 +29°C° 2 mm 5 mps 749 mmHg 83%
    04:00 +29°C° 0.6 mm 5 mps 749 mmHg 86%
    05:00 +28°C° 0.6 mm 4 mps 749 mmHg 89%
    06:00 +28°C° 0.6 mm 4 mps 749 mmHg 92%
    07:00 +28°C° 1.1 mm 4 mps 750 mmHg 91%
    08:00 +28°C° 1.1 mm 4 mps 750 mmHg 90%
    09:00 +29°C° 1.1 mm 4 mps 751 mmHg 88%
    10:00 +29°C° 1 mm 5 mps 751 mmHg 88%
    11:00 +29°C° 1 mm 5 mps 751 mmHg 89%
    12:00 +29°C° 1 mm 5 mps 751 mmHg 89%
    13:00 +30°C° 0.1 mm 5 mps 750 mmHg 85%
    14:00 +30°C° 0.1 mm 5 mps 749 mmHg 81%
    15:00 +32°C° 0.1 mm 5 mps 748 mmHg 77%
    16:00 +32°C° 0 mm 5 mps 748 mmHg 77%
    17:00 +32°C° 0 mm 5 mps 748 mmHg 77%
    18:00 +32°C° 0 mm 4 mps 747 mmHg 78%
    19:00 +30°C° 0 mm 4 mps 748 mmHg 81%
    20:00 +29°C° 0 mm 4 mps 749 mmHg 85%
    21:00 +29°C° 0 mm 4 mps 750 mmHg 88%
    22:00 +28°C° 0 mm 4 mps 750 mmHg 88%
    23:00 +28°C° 0 mm 4 mps 750 mmHg 89%

    Day after tomorrow, 25 August, Sunday

    Time Temperature Precipitation Wind Pressure Humidity
    00:00 +28°C° 0 mm 4 mps 750 mmHg 89%
    01:00 +28°C° 0 mm 4 mps 750 mmHg 89%
    02:00 +28°C° 0 mm 4 mps 749 mmHg 90%
    03:00 +27°C° 0 mm 3 mps 749 mmHg 90%
    04:00 +27°C° 0 mm 4 mps 749 mmHg 90%
    05:00 +28°C° 0 mm 4 mps 749 mmHg 89%
    06:00 +28°C° 0 mm 4 mps 750 mmHg 89%
    07:00 +29°C° 0 mm 5 mps 750 mmHg 84%
    08:00 +30°C° 0 mm 5 mps 751 mmHg 79%
    09:00 +32°C° 0 mm 6 mps 751 mmHg 74%
    10:00 +32°C° 0 mm 5 mps 751 mmHg 73%
    11:00 +32°C° 0 mm 5 mps 751 mmHg 72%
    12:00 +32°C° 0 mm 5 mps 750 mmHg 70%
    13:00 +33°C° 0 mm 5 mps 750 mmHg 67%
    14:00 +34°C° 0 mm 4 mps 749 mmHg 64%
    15:00 +35°C° 0 mm 4 mps 748 mmHg 61%
    16:00 +34°C° 0 mm 3 mps 748 mmHg 63%
    17:00 +34°C° 0 mm 3 mps 748 mmHg 65%
    18:00 +34°C° 0 mm 3 mps 748 mmHg 67%
    19:00 +32°C° 0 mm 2 mps 748 mmHg 71%
    20:00 +31°C° 0 mm 2 mps 749 mmHg 74%
    21:00 +30°C° 0 mm 2 mps 750 mmHg 78%
    22:00 +30°C° 0.2 mm 1 mps 750 mmHg 79%
    23:00 +30°C° 0.2 mm 1 mps 750 mmHg 81%

    26 August, Monday

    Time Temperature Precipitation Wind Pressure Humidity
    00:00 +30°C° 0.2 mm 1 mps 750 mmHg 82%
    01:00 +29°C° 0 mm 1 mps 749 mmHg 83%
    02:00 +29°C° 0 mm 1 mps 749 mmHg 84%
    03:00 +29°C° 0 mm 2 mps 749 mmHg 85%
    04:00 +29°C° 0 mm 2 mps 749 mmHg 86%
    05:00 +29°C° 0 mm 2 mps 749 mmHg 87%
    06:00 +28°C° 0 mm 2 mps 749 mmHg 88%
    07:00 +30°C° 0 mm 2 mps 749 mmHg 81%
    08:00 +31°C° 0 mm 3 mps 750 mmHg 73%
    09:00 +34°C° 0 mm 3 mps 750 mmHg 66%
    10:00 +35°C° 0 mm 3 mps 750 mmHg 61%
    11:00 +36°C° 0 mm 3 mps 749 mmHg 56%
    12:00 +37°C° 0 mm 3 mps 749 mmHg 51%
    13:00 +37°C° 0 mm 3 mps 748 mmHg 51%
    14:00 +38°C° 0 mm 3 mps 747 mmHg 50%
    15:00 +38°C° 0 mm 3 mps 747 mmHg 49%
    16:00 +37°C° 0 mm 2 mps 746 mmHg 52%
    17:00 +37°C° 0 mm 2 mps 746 mmHg 55%
    18:00 +35°C° 0 mm 1 mps 746 mmHg 59%
    19:00 +35°C° 0 mm 2 mps 747 mmHg 61%
    20:00 +35°C° 0 mm 2 mps 747 mmHg 64%
    21:00 +34°C° 0 mm 2 mps 748 mmHg 67%
    22:00 +32°C° 0 mm 2 mps 748 mmHg 69%
    23:00 +32°C° 0 mm 2 mps 748 mmHg 72%

    27 August, Tuesday

    Time Temperature Precipitation Wind Pressure Humidity
    00:00 +32°C° 0 mm 1 mps 748 mmHg 74%
    01:00 +31°C° 0 mm 1 mps 748 mmHg 76%
    02:00 +31°C° 0 mm 1 mps 748 mmHg 78%
    03:00 +31°C° 0 mm 1 mps 748 mmHg 80%
    04:00 +30°C° 0 mm 1 mps 748 mmHg 81%
    05:00 +30°C° 0 mm 1 mps 748 mmHg 82%
    06:00 +30°C° 0 mm 1 mps 748 mmHg 83%
    07:00 +31°C° 0 mm 2 mps 748 mmHg 77%
    08:00 +32°C° 0 mm 2 mps 748 mmHg 71%
    09:00 +35°C° 0 mm 2 mps 749 mmHg 65%
    10:00 +36°C° 0 mm 3 mps 748 mmHg 60%
    11:00 +37°C° 0 mm 3 mps 748 mmHg 55%
    12:00 +38°C° 0 mm 3 mps 748 mmHg 50%
    13:00 +38°C° 0 mm 2 mps 747 mmHg 49%
    14:00 +38°C° 0 mm 2 mps 746 mmHg 49%
    15:00 +37°C° 0 mm 1 mps 746 mmHg 48%
    16:00 +37°C° 0 mm 1 mps 746 mmHg 51%
    17:00 +36°C° 0 mm 1 mps 745 mmHg 53%
    18:00 +36°C° 0 mm 1 mps 745 mmHg 55%
    19:00 +35°C° 0 mm 1 mps 746 mmHg 58%
    20:00 +34°C° 0 mm 1 mps 747 mmHg 60%
    21:00 +35°C° 0 mm 2 mps 747 mmHg 62%
    22:00 +34°C° 0 mm 2 mps 748 mmHg 65%
    23:00 +33°C° 0 mm 1 mps 748 mmHg 68%

    28 August, Wednesday

    Time Temperature Precipitation Wind Pressure Humidity
    00:00 +32°C° 0 mm 1 mps 748 mmHg 70%
    01:00 +32°C° 0 mm 1 mps 747 mmHg 71%
    02:00 +32°C° 0 mm 1 mps 747 mmHg 72%
    03:00 +31°C° 0 mm 1 mps 747 mmHg 73%
    04:00 +31°C° 0 mm 1 mps 747 mmHg 75%
    05:00 +31°C° 0 mm 1 mps 747 mmHg 76%
    06:00 +31°C° 0 mm 1 mps 747 mmHg 78%
    07:00 +32°C° 0 mm 1 mps 748 mmHg 73%
    08:00 +33°C° 0 mm 1 mps 748 mmHg 68%
    09:00 +34°C° 0 mm 1 mps 749 mmHg 63%
    10:00 +36°C° 0.1 mm 2 mps 749 mmHg 60%
    11:00 +37°C° 0.1 mm 3 mps 749 mmHg 57%
    12:00 +38°C° 0.1 mm 4 mps 749 mmHg 54%
    13:00 +37°C° 0.1 mm 3 mps 749 mmHg 55%
    14:00 +37°C° 0.1 mm 3 mps 748 mmHg 56%
    15:00 +37°C° 0.1 mm 2 mps 747 mmHg 57%
    16:00 +36°C° 0 mm 2 mps 747 mmHg 61%
    17:00 +35°C° 0 mm 2 mps 747 mmHg 65%
    18:00 +34°C° 0 mm 2 mps 747 mmHg 68%
    19:00 +34°C° 0 mm 2 mps 747 mmHg 71%
    20:00 +32°C° 0 mm 2 mps 748 mmHg 74%
    21:00 +31°C° 0 mm 2 mps 748 mmHg 77%
    22:00 +31°C° 0 mm 2 mps 749 mmHg 77%
    23:00 +31°C° 0 mm 2 mps 749 mmHg 77%
    Show more